Location: Gourdan-Polignan
(43.0709°N, 0.5748°E)
Time: 05:43:55
(UTC+00:00)

Cosmos 2233 Rocket - Pass Details

Date: 15 May 2026
Orbit: 952 x 990 km, 82.9° (Epoch: 6 June)

Event Time Altitude Azimuth Distance (km) Brightness Sun altitude
Rises 20:04:32 0° 175° (S) 3,650 6.6 -8.6°
Reaches altitude 10° 20:07:03 10° 172° (S) 2,702 5.9 -9.0°
Maximum altitude 20:13:08 63° 93° (E) 1,068 4.0 -9.9°
Drops below altitude 10° 20:19:12 10° 14° (NNE) 2,696 6.7 -10.7°
Sets 20:21:43 0° 11° (NNE) 3,642 7.4 -11.1°
